Meath Environmental Platform

Observations for Trim Patrick St

Time AQI Temp °C Hum % Pres Pa CO μg/m³ H₂S μg/m³ NO μg/m³ NO₂ μg/m³ O₃ μg/m³ SO₂ μg/m³ PM1 μg/m³ PM2.5 μg/m³ PM10 μg/m³
Thursday 27 August 2026
10:10 2 19.9 78 38,460 0.04 0.53 1.4 21.37 47.71 0.38 20.86 30.7 32.01
10:09 2 19.9 78 38,460 0.03 0 1.44 13.37 37.08 0.46 22.57 31.38 32.66
10:08 2 20 78 38,460 0.02 0 1.2 13.81 41.85 0 23.43 34.23 37.66
10:07 3 20 78 38,460 0.04 0.5 1.41 14.47 47.57 0 21.72 32.14 33.49
10:06 2 20 78 38,460 0.08 0.32 1.18 17.7 33.79 0.28 22.57 34.21 37.63
10:05 3 20 78 38,460 0.04 0.45 1.36 19.5 46.69 0 21.72 33.54 35.58
10:04 3 20 78 38,460 0.06 0.08 1.2 18.36 35.29 1.14 21.72 32.11 33.43
10:03 2 20 78 38,460 0.04 0 1.14 14.16 47.14 0.06 21.72 32.11 32.72
10:02 2 20 78 38,460 0.03 0 0.96 10.2 40.96 0.95 21.72 31.39 34.1
10:01 2 20 78 38,460 0.03 0 1.03 13.62 36.33 0 21.72 31.44 32.08
10:00 2 20.1 78 38,460 0.07 0.29 1.36 22.74 47.44 0 22.57 32.89 35.72
09:59 2 20 78 38,460 0.1 0 1.59 17.2 34.2 0.25 21.72 31.44 32.08
09:58 2 20 78 38,460 0.12 0 1.46 13.15 37.25 0.93 21.72 30.69 31.98
09:57 2 20 78 38,460 0.05 0 2.3 15 38.51 0.81 21.72 30.69 33.39
09:56 2 20.1 78 38,460 0.05 0 2.68 22.33 24.4 3.18 22.57 32.08 36.18
09:55 2 20.1 78 38,460 0.03 0 1.75 15.09 35.72 0 21.72 30.7 31.31
09:54 2 20.1 78 38,460 0.05 0 1.37 15.61 40.23 0.07 21.72 30.7 32.72
09:53 2 20.1 78 38,460 0.13 0.71 1.55 20.65 27.03 1.54 22.57 32.1 36.92
09:52 2 20.1 78 38,460 0.09 0 0.98 17.8 30.56 0.85 22.57 32.13 34.87
09:51 2 20.1 78 38,460 0.04 0 1.07 16.09 44.53 0 21.72 32.88 36.39